Location: Erp
(42.9417°N, 1.2009°E)
Time: 04:51:11
(UTC+00:00)

Cosmos 1959 Rocket - Visible Passes

Search period start: 21 April 2026 00:00
Search period end: 01 May 2026 00:00
Orbit: 947 x 996 km, 82.9° (Epoch: 20 April)

Date Brightness Start Highest point End Pass type
(mag) Time Alt. Az. Time Alt. Az. Time Alt. Az.
21 Apr 6.3 20:44:41 10° SW 20:50:12 31° WNW 20:55:44 10° N visible
22 Apr 4.5 19:22:29 10° S 19:28:47 74° E 19:35:04 10° NNE visible
22 Apr 7.1 21:10:31 10° WSW 21:14:44 18° WNW 21:18:58 10° NNW visible
23 Apr 5.0 19:46:38 10° SSW 19:52:54 66° W 19:59:11 10° N visible
23 Apr 7.6 21:38:59 10° WNW 21:39:28 10° WNW 21:39:58 10° NW visible
24 Apr 6.0 20:11:22 10° SW 20:17:11 38° WNW 20:23:01 10° N visible
25 Apr 6.9 20:36:49 10° WSW 20:41:38 23° WNW 20:46:28 10° NNW visible
26 Apr 4.7 19:13:39 10° S 19:19:59 81° W 19:26:17 10° N visible
26 Apr 7.5 21:03:33 10° W 21:06:18 13° WNW 21:09:03 10° NW visible
27 Apr 5.7 19:38:10 10° SSW 19:44:12 47° WNW 19:50:14 10° N visible
28 Apr 6.7 20:03:18 10° SW 20:08:35 28° WNW 20:13:51 10° NNW visible
29 Apr 7.4 20:29:24 10° WSW 20:33:10 16° WNW 20:36:55 10° NNW visible
30 Apr 8.1 03:54:02 10° NE 03:54:58 10° ENE 03:55:54 10° ENE visible
